Regional Weather Roundup
Issued by NWS

Home | Current Version | Previous Version | Graphics & Text | Print | Product List | Glossary On
Versions: 1 2 3 4 5 6 7 8 9 10 11 12 13 14 15 16 17 18 19 20 21 22 23 24 25 26 27 28 29 30 31 32 33 34 35 36 37 38 39 40 41 42 43 44 45 46 47 48 49 50
000
ASUS45 KABQ 220101
RWRNM
WEATHER ROUNDUP FOR NEW MEXICO
NATIONAL WEATHER SERVICE ALBUQUERQUE NM
700 PM MDT SUN SEP 21 2014

NOTE: "FAIR" MEANS FEW OR NO CLOUDS BELOW 12,000 FEET AGL WITH NO
       SIGNIFICANT WEATHER OR OBSTRUCTIONS TO VISION.

      THIS PRODUCT IS RELEASED AS TWO VERSIONS.  ONE VERSION NEAR
      THE TOP OF THE HOUR CONTAINING PRELIMINARY DATA FROM ALBUQUERQUE
      AND OTHER STATIONS.  A FINAL VERSION WITH ADDITIONAL DATA IS
      ISSUED ABOUT 10 MINUTES AFTER THE HOUR.

NMZ501-503-504-510>518-220200-
NORTHWEST PLATEAU/NORTHCENTRAL MOUNTAINS

CITY           SKY/WX    TMP DP  RH WIND       PRES   REMARKS
FARMINGTON     PTCLDY    73  56  54 SE6       30.18R
LOS ALAMOS     MOCLDY    69  49  48 S17G26    30.37R
SANTA FE       MOCLDY    72  50  45 SE22G29   30.30R
TAOS           PTCLDY    66  45  45 SE20      30.34S
ANGEL FIRE     FAIR      59  46  60 SE6       30.47S

$$
NMZ402-403-502-505>509-220200-
WESTCENTRAL MOUNTAINS/SOUTHWEST MOUNTAINS

CITY           SKY/WX    TMP DP  RH WIND       PRES   REMARKS
GALLUP         LGT RAIN  62  57  83 E6        30.29S
GRANTS         CLOUDY    64  55  72 SE14G21   30.32R
SILVER CITY    CLOUDY    73  55  53 NE9       30.20F

$$
NMZ407-409-411-412-220200-
SOUTHERN DESERTS

CITY           SKY/WX    TMP DP  RH WIND       PRES   REMARKS
LORDSBURG      FAIR      77  63  61 MISG      30.09R
DEMING         CLOUDY    81  60  48 NE5       30.10S
LAS CRUCES     CLOUDY    80  59  48 SE6       30.12S
HOLLOMAN AFB   PTCLDY    79  63  58 CALM      30.10R
ALAMOGORDO     PTCLDY    75  64  69 CALM      30.12R
T OR C         CLOUDY    73  61  65 N13       30.16S

$$
NMZ519>523-220200-
CENTRAL VALLEYS/CENTRAL HIGHLANDS

CITY           SKY/WX    TMP DP  RH WIND       PRES   REMARKS
ALBUQUERQUE    CLOUDY    74  54  49 SE17      30.25R
DOUBLE EAGLE   MOCLDY    72  54  53 SE15      30.28R
CLINES CORNERS MOCLDY    62  55  77 SE16      30.37R
BELEN          CLOUDY    73  55  53 SE10      30.23S
SOCORRO        MOCLDY    71  66  84 E8        30.21S

$$
NMZ524>526-539-540-220200-
SOUTHCENTRAL MOUNTAINS

CITY           SKY/WX    TMP DP  RH WIND       PRES   REMARKS
RUIDOSO        NOT AVBL

$$
NMZ527>531-220200-
NORTHEAST HIGHLANDS/NORTHEAST PLAINS

CITY           SKY/WX    TMP DP  RH WIND       PRES   REMARKS
LAS VEGAS      CLOUDY    64  55  72 S13       30.38R
RATON          LGT RAIN  59  57  93 N16       30.36R
CLAYTON        CLEAR     66  54  65 E9        30.30S

$$
NMZ532>537-220200-
EASTCENTRAL PLAINS

CITY           SKY/WX    TMP DP  RH WIND       PRES   REMARKS
TUCUMCARI      RAIN      66  62  87 VRB5      30.24R FOG
CANNON AFB     NOT AVBL
CLOVIS AIRPORT   N/A     66  61  82 S7        30.26S

$$
NMZ028-029-538-220200-
SOUTHEAST PLAINS

CITY           SKY/WX    TMP DP  RH WIND       PRES   REMARKS
ROSWELL        CLOUDY    70  65  84 SE6       30.20R
CARLSBAD       RAIN      69  32  25 E10       30.15R
HOBBS          CLOUDY    68  68 100 E7        30.19S


$$


USA.gov is the U.S. government's official web portal to all federal, state and local government web resources and services.